Showing default

QIANFAN-51, 62252

Orbit data source: Space-Track

QIANFAN-51, 62252 is a Chinese payload satellite in LEO that was launched on Thu, 05 Dec 2024 UTC via a CHANG ZHENG 6A launch vehicle from the Taiyaun Space Center, China (TSC). Payload-class satellites include a variety of spacecraft equipped with specific instruments for various scientific and technological missions. These include communications satellites like Starlink; space stations such as the ISS; scientific satellites like the Hubble; Earth observation satellites from companies like Planet Labs, Umbra, and HawkEye 360; GPS; miniature CubeSats for education and research; and military/defense satellites.

Loading next visibility...
Identifier
62252, 2024-232R
Orbit
LEO
Country
Flag of CNCN / PRC
Related business
Manufacturer
SECM
Mission
Operational Commercial Communications
Bus & Motor
QIANFAN, Unknown motor
Mass
267 kg wet, ~267 kg dry
Launch date (UTC)
2024-12-05 (2 years ago)
Launch vehicle
CHANG ZHENG 6A
Launch site
Taiyaun Space Center, China (TSC)
Object type
Payload
Rocket body
Debris
Shape & HBR
Box + 1 Pan, 5.0 m
Radar Cross Section
13.200 m², Large (>1 m²)

Expand to show TLE details & history
Last TLE update: 9 hours ago

TLE from 9 hours ago
0 QIANFAN-51
1 62252U 24232R   26246.84595253  .00000084  00000-0  11155-3 0  9999
2 62252  89.0142  14.6210 0014559 148.5122 211.6904 13.51026614103651
Epoch: 2026-09-03T20:18Z
TLE epoch observation values (Epoch: 2026-09-03T20:18:10.298Z)
Latitude
0.00002°
Longitude
87.09982°
Altitude
1,080.668 km
Speed
7.307 km/s
True Right ascension
00h 58m 29s
True Declination
0° 00' 00"
Sunlit
Object was in full shadow at epoch
Visualization orbit readout
Latitude
Unknown
Longitude
Unknown
Altitude
Unknown
Speed
Unknown
Apparent Right ascension
Unknown
Apparent Declination
Unknown
Sunlit
N/A
Visualization observer readout
Local Sidereal Time
20:52:51
Azimuth
Unknown
Elevation
Unknown
Doppler factor
Unknown
Orbital elements
Apogee altitude
1,076.372 km
Perigee altitude
1,054.697 km
Semi-major axis
7,443.672 km
Eccentricity
0.00146
Inclination
89.0142°
RAAN
14.621°
Arg. of periapsis
148.5122°
True anomaly
211.60289°
Mean anomaly
211.6904°
Eccentric anomaly
211.64663°
Mean motion
3.37958 °/min
Orbital period
106.52 mins
BSTAR
0.00011155
Loading maneuver chart data...
Computing Atmospheric mass density...
Loading historical data...
Loading historical data...
Loading historical data...
Loading historical data...
Loading historical data...
Loading historical data...
Loading historical data...

Documentation

Showing up to 5 results
|